Weather History for KTTF - January, 2013

Change the Weather History Date:

Monday, January 14, 2013

  Actual Average (KDTW) Record (KDTW)
Temperature  
Mean Temperature 28 °F 25 °F  
Max Temperature 33 °F 32 °F 58 °F (1995)
Min Temperature 21 °F 19 °F -9 °F (1893)
Degree Days  
Heating Degree Days 37 40  
Month to date heating degree days 550  
Since 1 July heating degree days 2847  
Cooling Degree Days 0 0  
Month to date cooling degree days 0  
Year to date cooling degree days 0  
Moisture  
Dew Point 21 °F    
Average Humidity 77    
Maximum Humidity 100    
Minimum Humidity 69    
Precipitation  
Precipitation 0.00 in 0.06 in 0.78 in (1940)
Month to date precipitation 0.95  
Year to date precipitation 0.95  
Snow  
Snow 0.00 in 0.40 in 11.10 in (1992)
Month to date snowfall 5.7  
Since 1 July snowfall 16.9  
Snow Depth -    
Sea Level Pressure  
Sea Level Pressure 30.31 in    
Wind  
Wind Speed 12 mph (WNW)    
Max Wind Speed 22 mph    
Max Gust Speed 25 mph    
Visibility 10 miles    
Events      
T = Trace of Precipitation, MM = Missing Value Source: NWS Daily Summary

Daily Weather History Graph

Daily Weather History Graph

Search for Another Location

Airport or City:

Trip Planner

Search our weather history database for the weather conditions in past years. The results will help you decide how hot, cold, wet, or windy it might be!

Date:

Astronomy

Jan. 14, 2013 Rise Set
Actual Time 7:59 AM EST 5:26 PM EST
Civil Twilight 7:28 AM EST 5:57 PM EST
Nautical Twilight 6:54 AM EST 6:32 PM EST
Astronomical Twilight 6:20 AM EST 7:05 PM EST
Moon 9:28 AM EST (1/14) 9:15 PM EST (1/14)
Length of Visible Light 10h 29m
Length of Day
9h 27m
Waxing Crescent, 11% of the Moon is Illuminated
Jan 14
Waxing Crescent
Jan 18
First Quarter
Jan 26
Full
Feb 3
Last Quarter
Feb 10
New

Hourly Weather History & Observations

Time (EST) Temp. Windchill Dew Point Humidity Pressure Visibility Wind Dir Wind Speed Gust Speed Precip Events Conditions
12:13 AM 33.8 °F 23.2 °F 30.2 °F 87% 30.04 in 10.0 mi West 17.3 mph 21.9 mph N/A   Overcast
12:34 AM 33.8 °F 23.2 °F 30.2 °F 87% 30.05 in 10.0 mi West 17.3 mph 25.3 mph N/A   Overcast
12:54 AM 33.8 °F 23.5 °F 28.4 °F 81% 30.06 in 10.0 mi West 16.1 mph - N/A   Overcast
1:14 AM 32.0 °F 22.1 °F 26.6 °F 80% 30.07 in 10.0 mi West 13.8 mph 20.7 mph N/A   Overcast
1:34 AM 32.0 °F 20.1 °F 26.6 °F 80% 30.08 in 10.0 mi West 19.6 mph 25.3 mph N/A   Overcast
1:54 AM 32.0 °F 19.5 °F 24.8 °F 75% 30.09 in 10.0 mi West 21.9 mph 25.3 mph N/A   Overcast
2:14 AM 32.0 °F 23.0 °F 26.6 °F 80% 30.10 in 10.0 mi WNW 11.5 mph 19.6 mph N/A   Overcast
2:34 AM 30.2 °F 18.9 °F 26.6 °F 86% 30.13 in 10.0 mi WNW 16.1 mph - N/A   Overcast
2:54 AM 30.2 °F 19.3 °F 26.6 °F 86% 30.14 in 10.0 mi West 15.0 mph - N/A   Overcast
3:55 AM 28.4 °F 16.2 °F 24.8 °F 86% 30.17 in 10.0 mi West 17.3 mph 23.0 mph N/A   Overcast
4:15 AM 28.4 °F 15.8 °F 24.8 °F 86% 30.18 in 10.0 mi West 18.4 mph 21.9 mph N/A   Overcast
4:35 AM 28.4 °F 16.2 °F 23.0 °F 80% 30.19 in 10.0 mi West 17.3 mph 23.0 mph N/A   Overcast
5:15 AM 28.4 °F 18.0 °F 23.0 °F 80% 30.20 in 10.0 mi West 12.7 mph - N/A   Overcast
5:35 AM 26.6 °F 14.7 °F 21.2 °F 80% 30.22 in 10.0 mi West 15.0 mph 23.0 mph N/A   Overcast
5:55 AM 26.6 °F 13.8 °F 21.2 °F 80% 30.23 in 10.0 mi WNW 17.3 mph 25.3 mph N/A   Overcast
6:36 AM 26.6 °F 16.2 °F 21.2 °F 80% 30.26 in 10.0 mi West 11.5 mph 18.4 mph N/A   Overcast
6:51 AM 26.6 °F 14.3 °F 21.2 °F 80% 30.26 in 10.0 mi West 16.1 mph - N/A   Overcast
7:11 AM 26.6 °F 14.3 °F 21.2 °F 80% 30.27 in 10.0 mi NW 16.1 mph 19.6 mph N/A   Overcast
7:31 AM 26.6 °F 14.7 °F 21.2 °F 80% 30.28 in 10.0 mi NW 15.0 mph - N/A   Overcast
7:51 AM 26.6 °F 15.2 °F 19.4 °F 74% 30.29 in 10.0 mi NW 13.8 mph 19.6 mph N/A   Overcast
8:11 AM 26.6 °F 16.2 °F 19.4 °F 74% 30.30 in 10.0 mi West 11.5 mph - N/A   Overcast
8:51 AM 26.6 °F 15.7 °F 19.4 °F 74% 30.33 in 10.0 mi West 12.7 mph - N/A   Overcast
9:11 AM 26.6 °F 16.2 °F 19.4 °F 74% 30.34 in 10.0 mi West 11.5 mph - N/A   Overcast
9:31 AM 26.6 °F 17.5 °F 19.4 °F 74% 30.35 in 10.0 mi West 9.2 mph - N/A   Overcast
9:51 AM 26.6 °F 16.8 °F 21.2 °F 80% 30.37 in 10.0 mi West 10.4 mph - N/A   Overcast
10:12 AM 26.6 °F 18.2 °F 21.2 °F 80% 30.37 in 10.0 mi West 8.1 mph - N/A   Overcast
10:32 AM 26.6 °F 16.8 °F 19.4 °F 74% 30.37 in 10.0 mi NW 10.4 mph - N/A   Overcast
10:52 AM 26.6 °F 16.8 °F 19.4 °F 74% 30.37 in 10.0 mi WNW 10.4 mph - N/A   Overcast
11:12 AM 26.6 °F 18.2 °F 19.4 °F 74% 30.37 in 10.0 mi NW 8.1 mph - N/A   Overcast
11:32 AM 26.6 °F 17.5 °F 19.4 °F 74% 30.36 in 10.0 mi NW 9.2 mph - N/A   Overcast
11:52 AM 26.6 °F 19.1 °F 17.6 °F 69% 30.35 in 10.0 mi WNW 6.9 mph - N/A   Overcast
12:12 PM 26.6 °F 20.0 °F 17.6 °F 69% 30.34 in 10.0 mi WNW 5.8 mph - N/A   Overcast
12:32 PM 26.6 °F 22.6 °F 17.6 °F 69% 30.33 in 10.0 mi WNW 3.5 mph - N/A   Overcast
12:52 PM 26.6 °F 19.1 °F 17.6 °F 69% 30.33 in 10.0 mi West 6.9 mph - N/A   Overcast
1:13 PM 26.6 °F 18.2 °F 19.4 °F 74% 30.32 in 10.0 mi North 8.1 mph - N/A   Overcast
1:33 PM 26.6 °F 21.2 °F 17.6 °F 69% 30.34 in 10.0 mi NW 4.6 mph - N/A   Overcast
1:53 PM 26.6 °F 19.1 °F 17.6 °F 69% 30.35 in 10.0 mi West 6.9 mph - N/A   Overcast
2:13 PM 26.6 °F 20.0 °F 17.6 °F 69% 30.36 in 10.0 mi WSW 5.8 mph - N/A   Overcast
2:33 PM 26.6 °F 18.2 °F 17.6 °F 69% 30.35 in 10.0 mi WNW 8.1 mph - N/A   Overcast
2:53 PM 26.6 °F 21.2 °F 17.6 °F 69% 30.36 in 10.0 mi West 4.6 mph - N/A   Overcast
3:13 PM 26.6 °F 20.0 °F 17.6 °F 69% 30.37 in 10.0 mi West 5.8 mph - N/A   Overcast
3:33 PM 26.6 °F 21.2 °F 17.6 °F 69% 30.37 in 10.0 mi West 4.6 mph - N/A   Overcast
3:54 PM 26.6 °F 20.0 °F 19.4 °F 74% 30.39 in 10.0 mi West 5.8 mph - N/A   Overcast
4:34 PM 26.6 °F 21.2 °F 17.6 °F 69% 30.41 in 10.0 mi WNW 4.6 mph - N/A   Overcast
4:54 PM 26.6 °F 21.2 °F 19.4 °F 74% 30.42 in 10.0 mi WSW 4.6 mph - N/A   Overcast
5:14 PM 26.6 °F 20.0 °F 19.4 °F 74% 30.41 in 10.0 mi West 5.8 mph - N/A   Overcast
5:34 PM 26.6 °F 20.0 °F 19.4 °F 74% 30.41 in 10.0 mi West 5.8 mph - N/A   Overcast
5:54 PM 26.6 °F 21.2 °F 19.4 °F 74% 30.42 in 10.0 mi WSW 4.6 mph - N/A   Overcast
6:14 PM 26.6 °F 20.0 °F 19.4 °F 74% 30.41 in 10.0 mi West 5.8 mph - N/A   Overcast
6:34 PM 26.6 °F 21.2 °F 19.4 °F 74% 30.41 in 10.0 mi West 4.6 mph - N/A   Overcast
6:54 PM 26.6 °F 20.0 °F 19.4 °F 74% 30.41 in 10.0 mi WNW 5.8 mph - N/A   Overcast
7:15 PM 26.6 °F 20.0 °F 19.4 °F 74% 30.39 in 10.0 mi WNW 5.8 mph - N/A   Mostly Cloudy
7:35 PM 26.6 °F 21.2 °F 19.4 °F 74% 30.38 in 10.0 mi NW 4.6 mph - N/A   Scattered Clouds
7:55 PM 26.6 °F 20.0 °F 19.4 °F 74% 30.38 in 10.0 mi NW 5.8 mph - N/A   Scattered Clouds
8:15 PM 26.6 °F 21.2 °F 21.2 °F 80% 30.38 in 10.0 mi NW 4.6 mph - N/A   Scattered Clouds
8:35 PM 26.6 °F 21.2 °F 19.4 °F 74% 30.38 in 10.0 mi NW 4.6 mph - N/A   Clear
8:55 PM 26.6 °F 20.0 °F 19.4 °F 74% 30.37 in 10.0 mi NW 5.8 mph - N/A   Scattered Clouds
9:15 PM 24.8 °F 17.9 °F 19.4 °F 80% 30.37 in 10.0 mi NW 5.8 mph - N/A   Mostly Cloudy
9:35 PM 24.8 °F - 19.4 °F 80% 30.37 in 10.0 mi Calm Calm - N/A   Scattered Clouds
9:55 PM 24.8 °F - 19.4 °F 80% 30.38 in 10.0 mi Calm Calm - N/A   Clear
10:15 PM 24.8 °F - 19.4 °F 80% 30.37 in 10.0 mi Calm Calm - N/A   Clear
10:31 PM 24.8 °F - 19.4 °F 80% 30.36 in 10.0 mi Calm Calm - N/A   Clear
10:51 PM 23.0 °F - 19.4 °F 86% 30.36 in 10.0 mi Calm Calm - N/A   Clear
11:11 PM 23.0 °F - 21.2 °F 93% 30.37 in 10.0 mi Calm Calm - N/A   Clear
11:31 PM 23.0 °F - 19.4 °F 86% 30.37 in 10.0 mi Calm Calm - N/A   Clear
11:51 PM 21.2 °F - 21.2 °F 100% 30.38 in 10.0 mi Calm Calm - N/A   Clear